Weather History for Edinburgh Airport, United Kingdom

Change the Weather History Date:

Sunday, February 10, 2013

  Actual Average Record
Temperature  
Mean Temperature 37 °F -  
Max Temperature 39 °F 45 °F 51 °F (1998)
Min Temperature 35 °F 33 °F 24 °F (2006)
Degree Days  
Heating Degree Days 28    
Moisture  
Dew Point 34 °F    
Average Humidity 86    
Maximum Humidity 93    
Minimum Humidity 81    
Precipitation  
Precipitation 0.00 in 0.06 in - ()
Sea Level Pressure  
Sea Level Pressure 29.53 in    
Wind  
Wind Speed 9 mph ()    
Max Wind Speed 16 mph    
Max Gust Speed -    
Visibility 6.2 miles    
Events Rain , Snow    
Averages and records for this station are not official NWS values.
T = Trace of Precipitation, MM = Missing Value Source: Averaged Metar Reports

Daily Weather History Graph

Daily Weather History Graph

Search for Another Location

Airport:

Trip Planner

Search our weather history database for the weather conditions in past years. The results will help you decide how hot, cold, wet, or windy it might be!

Date:

Astronomy

Feb. 10, 2013 Rise Set
Actual Time 7:49 AM GMT 5:06 PM GMT
Civil Twilight 7:09 AM GMT 5:46 PM GMT
Nautical Twilight 6:26 AM GMT 6:30 PM GMT
Astronomical Twilight 5:43 AM GMT 7:13 PM GMT
Moon 7:19 AM GMT (2/10) 5:57 PM GMT (2/10)
Length of Visible Light 10h 36m
Length of Day
9h 17m
New Moon, 0% of the Moon is Illuminated
Feb 10
New Moon
Feb 17
First Quarter
Feb 25
Full
Mar 4
Last Quarter
Mar 11
New

Hourly Weather History & Observations

Time (GMT) Temp. Windchill Dew Point Humidity Pressure Visibility Wind Dir Wind Speed Gust Speed Precip Events Conditions
12:20 AM 37.4 °F 31.4 °F 33.8 °F 87% 29.80 in 6.2 mi East 8.1 mph - N/A   Mostly Cloudy
12:50 AM 37.4 °F 32.1 °F 33.8 °F 87% 29.80 in 6.2 mi East 6.9 mph - N/A   Mostly Cloudy
1:20 AM 37.4 °F 31.4 °F 33.8 °F 87% 29.77 in 6.2 mi East 8.1 mph - N/A   Mostly Cloudy
1:50 AM 37.4 °F 31.4 °F 33.8 °F 87% 29.74 in 6.2 mi East 8.1 mph - N/A   Mostly Cloudy
2:20 AM 37.4 °F 32.1 °F 33.8 °F 87% 29.74 in 6.2 mi East 6.9 mph - N/A   Mostly Cloudy
2:50 AM 37.4 °F 32.1 °F 33.8 °F 87% 29.71 in 6.2 mi East 6.9 mph - N/A   Mostly Cloudy
3:20 AM 37.4 °F 32.1 °F 33.8 °F 87% 29.68 in 6.2 mi ENE 6.9 mph - N/A   Unknown
3:50 AM 37.4 °F 32.1 °F 33.8 °F 87% 29.68 in 6.2 mi ENE 6.9 mph - N/A   Unknown
4:20 AM 37.4 °F 32.1 °F 33.8 °F 87% 29.65 in 6.2 mi ENE 6.9 mph - N/A   Scattered Clouds
4:50 AM 37.4 °F 30.8 °F 33.8 °F 87% 29.65 in 6.2 mi East 9.2 mph - N/A   Mostly Cloudy
5:20 AM 37.4 °F 31.4 °F 33.8 °F 87% 29.62 in 6.2 mi East 8.1 mph - N/A   Mostly Cloudy
5:50 AM 37.4 °F 31.4 °F 33.8 °F 87% 29.62 in 6.2 mi East 8.1 mph - N/A Rain Light Rain
6:20 AM 35.6 °F 29.2 °F 33.8 °F 93% 29.59 in 6.2 mi ENE 8.1 mph - N/A Rain Light Rain
6:50 AM 35.6 °F 28.6 °F 33.8 °F 93% 29.59 in 6.2 mi East 9.2 mph - N/A Rain Light Rain
7:20 AM 35.6 °F 29.9 °F 33.8 °F 93% 29.56 in 6.2 mi ENE 6.9 mph - N/A Rain Light Rain
7:50 AM 37.4 °F 32.1 °F 32.0 °F 81% 29.56 in - East 6.9 mph - N/A   Clear
8:20 AM 37.4 °F 30.8 °F 32.0 °F 81% 29.56 in - East 9.2 mph - N/A   Clear
8:50 AM 37.4 °F 32.1 °F 32.0 °F 81% 29.53 in 6.2 mi East 6.9 mph - N/A   Partly Cloudy
9:20 AM 37.4 °F 30.8 °F 32.0 °F 81% 29.53 in 6.2 mi East 9.2 mph - N/A   Partly Cloudy
9:50 AM 37.4 °F 30.8 °F 32.0 °F 81% 29.53 in 6.2 mi East 9.2 mph - N/A   Partly Cloudy
10:20 AM 37.4 °F 29.8 °F 32.0 °F 81% 29.50 in 6.2 mi East 11.5 mph - N/A Rain Light Rain
10:50 AM 37.4 °F 29.3 °F 32.0 °F 81% 29.50 in 6.2 mi ESE 12.7 mph - N/A Rain Light Rain
11:20 AM 35.6 °F 27.5 °F 32.0 °F 87% 29.50 in 6.2 mi East 11.5 mph - N/A Rain Light Rain
11:50 AM 35.6 °F 26.6 °F 32.0 °F 87% 29.50 in 5.6 mi East 13.8 mph - N/A Rain Light Rain
12:20 PM 37.4 °F 29.8 °F 32.0 °F 81% 29.50 in 5.6 mi East 11.5 mph - N/A Rain , Snow Light Rain
12:50 PM 37.4 °F 30.3 °F 32.0 °F 81% 29.47 in 6.2 mi East 10.4 mph - N/A Rain , Snow Light Rain
1:20 PM 37.4 °F 30.8 °F 33.8 °F 87% 29.47 in 6.2 mi ENE 9.2 mph - N/A Rain Light Rain
1:50 PM 37.4 °F 30.8 °F 33.8 °F 87% 29.47 in 6.2 mi ENE 9.2 mph - N/A Rain Light Rain
2:20 PM 37.4 °F 30.8 °F 33.8 °F 87% 29.44 in 6.2 mi ENE 9.2 mph - N/A Rain Light Rain
2:50 PM 37.4 °F 30.3 °F 33.8 °F 87% 29.44 in 6.2 mi East 10.4 mph - N/A Rain Light Rain
3:20 PM 37.4 °F 30.3 °F 35.6 °F 93% 29.44 in 6.2 mi ENE 10.4 mph - N/A Rain Light Rain
3:50 PM 37.4 °F 30.8 °F 35.6 °F 93% 29.42 in 6.2 mi East 9.2 mph - N/A Rain Light Rain
4:20 PM 37.4 °F 30.3 °F 35.6 °F 93% 29.42 in 6.2 mi ENE 10.4 mph - N/A Rain Light Rain
4:50 PM 39.2 °F 31.6 °F 35.6 °F 87% 29.42 in 6.2 mi ENE 12.7 mph - N/A Rain Light Rain
5:20 PM 37.4 °F 29.3 °F 35.6 °F 93% 29.42 in 6.2 mi ENE 12.7 mph - N/A Rain Light Rain
5:50 PM 39.2 °F 31.2 °F 35.6 °F 87% 29.42 in 6.2 mi ENE 13.8 mph - N/A Rain Light Rain
6:20 PM 39.2 °F 32.0 °F 35.6 °F 87% 29.42 in 6.2 mi East 11.5 mph - N/A Rain Light Rain
6:50 PM 39.2 °F 31.2 °F 35.6 °F 87% 29.42 in 6.2 mi East 13.8 mph - N/A Rain Light Rain
7:20 PM 39.2 °F 31.6 °F 35.6 °F 87% 29.42 in 6.2 mi East 12.7 mph - N/A Rain Light Rain
7:50 PM 39.2 °F 31.2 °F 35.6 °F 87% 29.44 in 6.2 mi East 13.8 mph - N/A   Mostly Cloudy
8:20 PM 39.2 °F 30.8 °F 35.6 °F 87% 29.44 in 6.2 mi East 15.0 mph - N/A Rain Light Rain
8:50 PM 39.2 °F 31.2 °F 35.6 °F 87% 29.44 in 6.2 mi East 13.8 mph - N/A Rain Light Rain
9:20 PM 39.2 °F 31.6 °F 35.6 °F 87% 29.44 in 6.2 mi East 12.7 mph - N/A Rain Light Rain
9:50 PM 39.2 °F 30.5 °F 35.6 °F 87% 29.44 in 6.2 mi East 16.1 mph - N/A Rain Light Rain
10:20 PM 39.2 °F 31.2 °F 35.6 °F 87% 29.44 in 6.2 mi East 13.8 mph - N/A Rain Light Rain
10:50 PM 39.2 °F 30.8 °F 33.8 °F 81% 29.47 in 6.2 mi East 15.0 mph - N/A Rain Light Rain
11:20 PM 39.2 °F 30.8 °F 33.8 °F 81% 29.47 in 6.2 mi East 15.0 mph - N/A   Mostly Cloudy
11:50 PM 39.2 °F 31.2 °F 33.8 °F 81% 29.47 in 6.2 mi East 13.8 mph - N/A Rain Light Rain